Location: Manton
(51.4000°N, 1.7500°W)
Time: 18:03:13
(UTC+00:00)

Daily predictions for brighter satellites

Satellite Brightness Start Highest point End
(mag) Time Altitude Azimuth Time Altitude Azimuth Time Altitude Azimuth
USA 307 3.0 18:16:27 10° WSW 18:20:46 76° NNW 18:25:02 10° ENE
FALCON 9 DEB 3.1 18:18:44 10° WNW 18:22:11 89° SSW 18:25:36 10° ESE
USA 306 3.1 18:19:53 10° W 18:24:09 73° NNW 18:28:26 10° ENE
ATLAS CENTAUR R/B 2.9 18:22:37 10° SE 18:24:23 13° ESE 18:26:09 10° E
Cosmos 1354 Rocket 4.4 18:19:22 10° NNW 18:24:25 44° ENE 18:29:24 10° SE
Cosmos 44 Rocket 3.6 18:20:27 10° NW 18:25:44 87° SW 18:30:57 10° SE
FALCON 9 DEB 3.1 18:23:17 10° W 18:26:27 65° N 18:29:36 10° ENE
ERS-2 3.1 18:24:01 10° NE 18:27:09 26° E 18:30:17 10° SSE
Cosmos 1844 Rocket 3.0 18:22:36 10° NNW 18:28:02 48° NE 18:33:24 10° SE
Cosmos 2084 Rocket 3.5 18:23:53 10° NW 18:28:12 84° NE 18:32:40 10° SE
FALCON 9 DEB 3.1 18:25:13 10° W 18:28:25 67° N 18:31:37 10° ENE
Okean-O 2.6 18:25:17 10° SSE 18:29:40 64° ENE 18:34:04 10° N
CSL-04 Rocket 4.0 18:25:53 10° SE 18:31:11 48° ENE 18:36:27 10° N
USA 308 3.1 18:27:04 10° W 18:31:21 72° NNW 18:35:38 10° ENE
CSL-04 Debris 4.4 18:27:15 10° SE 18:32:31 52° ENE 18:37:49 10° N
Cosmos 1271 Rocket 3.2 18:29:02 10° NNW 18:32:45 64° W 18:36:28 10° S
Cosmos 1503 Rocket 4.1 18:29:34 10° NNW 18:34:44 57° ENE 18:39:49 10° SE
Cosmos 1666 4.4 18:33:12 10° ESE 18:35:02 13° E 18:36:54 10° NE
H-2A R/B 3.1 18:32:11 10° N 18:36:09 47° WNW 18:40:05 10° SW
SKYMED 2 3.7 18:32:54 10° NNE 18:37:17 82° WNW 18:41:38 10° SSW
HJ-1C 3.6 18:34:20 10° SSE 18:37:31 47° ENE 18:40:44 10° N
MOS 1 Rocket 3.8 18:33:17 10° N 18:38:18 74° WNW 18:43:33 10° SSW
PSLV R/B 4.2 18:34:23 10° NNE 18:38:20 45° E 18:42:14 10° S
Cosmos 1844 4.0 18:34:11 10° NNW 18:39:50 50° NE 18:45:23 10° SE
CZ-4B R/B 1.4 18:39:22 10° N 18:42:25 72° WNW 18:45:28 10° SSW
Cosmos 1470 Rocket 3.9 18:38:34 10° SSE 18:42:48 43° E 18:47:02 10° NNE
Cosmos 2278 Rocket 3.6 18:40:33 10° NNW 18:44:49 21° NE 18:48:36 12° E
Cosmos 2360 Rocket 2.9 18:40:07 10° SSE 18:45:03 32° ESE 18:50:02 10° NE
Cosmos 1602 3.7 18:42:31 10° S 18:46:23 68° E 18:50:18 10° NNE
Ariane Rocket 4.1 18:42:37 10° ESE 18:46:45 26° ENE 18:50:54 10° N
Meteor 1-19 Rocket 4.3 18:41:43 10° NNW 18:47:44 83° ENE 18:53:32 10° SSE
Meteor 2-4 Rocket 3.9 18:46:30 10° N 18:52:16 57° ENE 18:58:04 10° SSE
Cosmos 1703 Rocket 4.0 18:48:25 10° N 18:52:35 39° ENE 18:56:41 10° SE
Cosmos 1500 3.6 18:50:01 10° SSE 18:53:29 38° E 18:56:58 10° NNE
Cosmos 2333 Rocket 3.5 18:51:42 10° SE 18:55:30 19° E 18:59:18 10° ENE
Cosmos 1689 Rocket 2.0 18:52:57 10° NNE 18:55:47 53° E 18:58:37 10° S
SL-08 RB Rocket 3.7 18:53:47 10° SSE 18:58:15 65° ENE 19:02:48 10° N
Meteor 2-12 Rocket 4.4 18:53:06 10° S 18:59:02 61° E 19:05:03 10° NNE
ERBS 2.3 18:56:18 10° WSW 18:59:37 74° NNW 19:02:18 15° ENE
Cosmos 1980 Rocket 3.6 18:55:44 10° WSW 19:01:04 40° NW 19:06:26 10° NNE
Cosmos 1943 Rocket 4.3 19:01:04 10° N 19:03:12 12° NNE 19:05:19 10° NE
Aureole 2 Rocket 2.2 19:00:53 10° NNW 19:03:25 57° WSW 19:05:51 10° SSE
Cosmos 1933 Rocket 3.8 18:59:31 10° SSE 19:03:42 47° E 19:07:55 10° NNE
Cosmos 1862 Rocket 4.1 19:00:16 10° NNW 19:04:44 65° W 19:09:09 10° S
Cosmos 1666 Rocket 4.2 19:00:59 10° SSW 19:05:15 59° WNW 19:09:32 10° N
Cosmos 2242 Rocket 3.6 19:06:12 10° N 19:10:43 65° ENE 19:15:09 10° SSE
Resurs 01 Rocket 3.1 19:12:41 18° ENE 19:13:23 19° ENE 19:16:26 10° NNE
Cosmos 2322 Rocket 2.1 19:09:11 10° SSW 19:14:47 83° ESE 19:20:27 10° NNE
Cosmos 1461 3.8 19:10:07 10° WSW 19:14:49 58° NW 19:19:30 10° NE
Abrixas rocket 2.2 19:13:13 10° WSW 19:15:35 39° S 19:16:07 34° SE
Lacrosse 4 Rocket 3.7 19:14:15 10° SSE 19:14:29 11° SE 19:14:29 11° SE
FALCON 9 DEB 3.1 19:16:21 10° W 19:19:31 63° N 19:20:47 32° ENE
Nadezhda 3 Rocket 4.4 19:13:11 10° NNW 19:19:31 69° W 19:25:50 10° S
Helios 1A Rocket 3.4 19:16:38 10° S 19:20:39 63° WSW 19:24:40 10° NNW
YAOGAN 1 4.0 19:17:26 10° SSW 19:21:31 40° W 19:25:38 10° NNW
COSMOS 2428 3.7 19:21:03 10° SSE 19:32:11 - NE 19:24:51 23° ESE
SJ-6B 3.0 19:22:30 17° SE 19:25:29 52° ENE 19:29:26 10° N
ASTEX 1 3.9 19:21:48 10° NNE 19:26:18 35° E 19:30:11 13° SSE
Cosmos 2154 Rocket 4.2 19:22:34 10° SSW 19:28:47 73° W 19:35:01 10° N
GP-B 3.0 19:25:03 10° S 19:29:29 87° E 19:33:58 10° N
Meteor 1-14 Rocket 4.1 19:24:23 10° S 19:29:58 89° E 19:35:32 10° NNE
MOS 1 4.4 19:25:33 13° SE 19:30:30 55° ENE 19:36:02 10° N
FALCON 9 DEB 3.0 19:28:47 10° WNW 19:31:57 67° N 19:32:42 46° ENE
Cosmos 2219 Rocket 2.9 19:27:28 10° SSE 19:32:14 30° ESE 19:37:02 10° NE
Meteor 1-11 Rocket 4.1 19:27:34 10° SSE 19:32:50 40° E 19:38:02 10° NNE
MetOp-A 4.0 19:29:12 10° SSE 19:34:33 80° ENE 19:39:57 10° NNW
OBJECT-B 0.9 19:36:24 50° E 19:36:42 52° ENE 19:39:52 10° N
Cosmos 1992 Rocket 4.2 19:31:38 10° SSW 19:36:52 76° WNW 19:42:08 10° NNE
ARGOS 4.2 19:33:43 10° S 19:38:55 47° W 19:44:11 10° NNW
SJ 16-02 2.1 19:35:04 10° N 19:39:04 32° ENE 19:39:34 32° ENE
SL-16 R/B 2.8 19:33:56 10° SW 19:39:31 58° NW 19:45:10 10° NNE
Okean 1-7 3.1 19:35:30 10° NNW 19:39:54 80° W 19:44:15 10° S
Resurs 1-3 3.9 19:38:47 35° ESE 19:40:01 44° ENE 19:44:13 10° N
SeaSat 1 2.3 19:35:22 10° NNE 19:40:21 81° ESE 19:45:17 10° SSW
Cosmos 1066 Rocket 4.3 19:36:22 10° N 19:41:59 57° ENE 19:45:41 22° SE
Meteor 1-13 Rocket 4.2 19:36:26 10° N 19:42:27 76° ENE 19:48:19 10° SSE
USA 234 3.5 19:39:54 23° ENE 19:43:49 46° SE 19:50:04 10° SSW
Cosmos 1536 4.5 19:46:16 20° NE 19:46:16 20° NE 19:47:45 10° NNE
CZ-4 R/B 4.2 19:42:17 10° SW 19:45:06 19° W 19:47:57 10° NW
CZ-2C R/B 2.8 19:42:15 10° NNE 19:47:47 76° WNW 19:53:09 10° SSW
Cosmos 2369 Rocket 4.3 19:46:04 10° N 19:48:30 13° NNE 19:50:42 10° NE
H-2A R/B 4.2 19:45:01 10° SSW 19:49:41 29° W 19:54:23 10° NNW
USA 305 3.1 19:45:28 10° WNW 19:49:42 61° N 19:50:56 41° ENE
BREEZE-M DEB (TANK) 2.3 19:47:33 10° W 19:50:05 67° S 19:51:09 44° ESE
IRS-1A Rocket 4.2 19:46:43 15° SSE 19:51:26 78° ENE 19:57:00 10° NNW
Cosmos 2322 3.8 19:46:33 10° S 19:52:02 51° ESE 19:57:35 10° NE
DMSP B5D2-2 4.0 19:48:21 10° NNE 19:53:37 84° ESE 19:58:50 10° SSW
SL-4 R/B 1.7 19:50:32 10° W 19:54:00 58° SSW 19:54:12 56° S
USA 186 2.7 19:56:42 35° WNW 19:56:42 35° WNW 19:58:43 10° NNW
Cosmos 1898 Rocket 4.4 19:52:58 10° N 19:57:32 30° NE 19:57:51 29° ENE
Cosmos 1869 Rocket 3.4 19:53:37 10° S 19:57:57 71° E 20:02:22 10° NNE
Cosmos 2237 4.4 19:53:11 10° SW 19:58:54 73° WNW 20:04:41 10° NNE
Gbstr 26 Del rocket 3.4 19:54:29 10° W 19:59:10 86° N 20:00:59 43° E
SL-8 Rocket 3.9 19:54:16 10° S 20:00:30 85° E 20:06:44 10° N
ERS-2 4.1 19:57:27 10° N 20:00:42 30° WNW 20:03:55 10° SW
USA 307 3.1 19:56:48 10° WNW 20:01:03 62° N 20:01:49 51° NE
FALCON 9 DEB 3.3 19:59:14 10° WNW 20:01:56 61° WNW 20:01:56 61° WNW
ATLAS CENTAUR R/B 1.0 19:59:03 10° SW 20:02:41 79° NW 20:03:11 63° NNE
Cosmos 1378 3.1 20:00:26 10° N 20:03:53 69° NE 20:03:53 69° NE
USA 306 3.0 20:00:10 10° WNW 20:04:26 63° N 20:05:03 55° NE
FALCON 9 DEB 3.4 20:01:17 10° WNW 20:03:59 59° NW 20:03:59 59° NW
Cosmos 1666 3.1 20:06:26 10° SSW 20:10:07 59° WNW 20:13:50 10° N
USA 308 3.0 20:07:23 10° WNW 20:11:39 64° N 20:11:59 61° NE
Cosmos 1844 Rocket 4.1 20:06:45 10° NW 20:11:48 36° WSW 20:16:48 10° S
Cosmos 1777 Rocket 4.5 20:10:07 10° NNW 20:15:17 59° WSW 20:18:16 24° S
Cosmos 2366 rocket 3.9 20:09:14 10° S 20:15:33 89° E 20:21:58 10° N
NOSS 3-3 (A) 4.5 20:08:21 10° NW 20:15:37 72° NE 20:18:42 41° ESE
NOSS 3-3 (C) 4.5 20:08:27 10° NW 20:15:43 72° NE 20:18:47 41° ESE
Landsat 7 4.3 20:17:04 43° NE 20:17:04 43° NE 20:21:00 10° N
Okean 3 3.8 20:13:53 10° NNW 20:18:06 64° W 20:19:31 39° SSW
SPOT 3 Rocket 3.5 20:18:37 60° ESE 20:19:23 69° ENE 20:24:36 10° NNW
ARIANE 5 R/B 4.2 20:21:39 24° NNE 20:21:39 24° NNE 20:23:59 10° N
Cosmos 2333 4.1 20:16:59 10° SSW 20:22:39 88° ESE 20:28:25 10° NNE
Cosmos 2221 Rocket 3.5 20:18:59 10° N 20:23:10 77° NNE 20:23:10 77° NNE
Ariane Rocket 3.5 20:22:16 23° S 20:25:23 60° WSW 20:30:27 10° NNW
Cosmos 2360 Rocket 2.9 20:23:18 10° SW 20:28:50 54° NW 20:34:24 10° NNE
SPOT 1/Viking Rocket 4.1 20:29:56 43° NE 20:29:56 43° NE 20:34:04 10° N
Cosmos 2278 Rocket 2.0 20:24:13 10° NNW 20:29:55 74° ENE 20:30:28 68° ESE
Cosmos 1727 Rocket 4.0 20:28:21 10° NNW 20:34:32 76° W 20:37:44 30° S
Cosmos 990 Rocket 4.2 20:29:28 10° NNW 20:34:05 55° NE 20:34:05 55° NE
Meteor 2-20 4.4 20:29:44 10° NNW 20:35:52 81° W 20:38:13 40° S
ERBS 4.4 20:33:08 10° WNW 20:35:08 25° NW 20:35:08 25° NW
Cosmos 2333 Rocket 2.1 20:33:19 10° SSW 20:39:01 88° NW 20:44:48 10° NNE
Cosmos 1821 Rocket 3.9 20:41:55 65° ENE 20:41:55 65° ENE 20:47:44 10° NNE
Cosmos 2218 Rocket 4.5 20:36:30 10° SSW 20:42:50 61° WNW 20:49:11 10° N
Cosmos 1000 Rocket 4.4 20:41:28 10° N 20:47:47 84° E 20:48:32 71° SSE
Cosmos 1943 Rocket 3.5 20:44:07 10° NNW 20:48:24 28° NNE 20:48:24 28° NNE
Resurs 01 Rocket 2.2 20:50:14 54° NW 20:50:14 54° NW 20:53:51 10° NNW
MetOp-B 4.1 20:50:11 79° N 20:50:11 79° N 20:55:14 10° NNW
Lacrosse 4 Rocket 4.1 20:50:44 10° SW 20:50:56 11° SW 20:50:56 11° SW
Cosmos 2322 Rocket 4.2 20:54:54 10° W 20:59:32 26° NW 21:04:12 10° NNE
Cosmos 2123 Rocket 4.1 20:54:37 10° N 21:00:10 63° NE 21:00:10 63° NE
USA 245 4.4 21:07:22 72° NNW 21:07:22 72° NNW 21:12:55 10° NNW
Cosmos 1937 Rocket 4.4 21:03:08 10° NNW 21:06:40 42° N 21:06:40 42° N
COSMOS 2428 3.5 21:03:27 10° SW 21:14:01 15° NNE 21:14:52 10° NNE
OBJECT-B 4.1 21:09:28 12° W 21:09:28 12° W 21:10:36 10° WNW
Cosmos 2219 Rocket 2.7 21:10:22 10° SW 21:15:53 57° NW 21:21:27 10° NNE
SJ 16-02 3.1 21:13:39 10° NW 21:16:35 30° WNW 21:16:35 30° WNW
Terra 3.8 21:21:49 21° N 21:21:49 21° N 21:23:28 10° N
USA 234 3.2 21:27:15 79° NW 21:27:15 79° NW 21:33:42 10° WSW
USA 281 3.9 21:34:30 45° NNE 21:34:30 45° NNE 21:39:37 10° NNW
Cosmos 2369 Rocket 3.8 21:29:20 10° NNW 21:32:29 27° N 21:32:29 27° N
Cosmos 2278 Rocket 4.2 22:09:08 10° NW 22:12:20 21° W 22:12:20 21° W
Cosmos 2333 Rocket 4.2 22:19:31 10° W 22:24:06 24° NW 22:28:45 10° NNE
Cosmos 1943 Rocket 4.1 22:27:39 10° NNW 22:29:55 25° NW 22:29:55 25° NW
